Location: Grand Lay
(47.3253°N, 0.9468°E)
Time: 20:23:49
(UTC+00:00)

Gbstr 26 Del rocket - Pass Details

Date: 19 April 2026
Orbit: 490 x 1216 km, 51.8° (Epoch: 13 May)

Event Time Altitude Azimuth Distance (km) Brightness Sun altitude
Exits shadow 02:12:56 40° 337° (NNW) 740 3.6 -24.0°
Maximum altitude 02:13:37 46° 9° (N) 678 3.6 -23.9°
Drops below altitude 10° 02:17:12 10° 84° (E) 1,682 5.8 -23.6°
Sets 02:19:26 0° 91° (E) 2,582 6.8 -23.3°
